Regional Weather Roundup
Issued by NWS Green Bay, WI

Home | Current Version | Previous Version | Graphics & Text | Print | Product List | Glossary Off
Versions: 1 2 3 4 5 6 7 8 9 10 11 12 13 14 15 16 17 18 19 20 21 22 23 24 25 26 27 28 29 30 31 32 33 34 35 36 37 38 39 40 41 42 43 44 45 46 47 48 49 50

000
ASUS43 KGRB 290400
RWRGRB

NORTH-CENTRAL AND NORTHEAST WISCONSIN REGIONAL WEATHER ROUNDUP
NATIONAL WEATHER SERVICE GREEN BAY WI
1100 PM CDT SAT MAY 28 2016

WIZ005-009-010>012-018-019-290500-
NORTH CENTRAL WISCONSIN

CITY           SKY/WX    TMP DP  RH WIND       PRES   REMARKS
IRONWOOD       CLOUDY    55  55 100 CALM      29.79S THUNDER VSB 3/4
MANITOWISH WTR NOT AVBL
ARBOR VITAE    NOT AVBL
EAGLE RIVER    NOT AVBL
LAND O LAKES   NOT AVBL
RHINELANDER    LGT RAIN  66  60  81 S7        29.83S
PHILLIPS       NOT AVBL
ANTIGO         NOT AVBL
TOMAHAWK       NOT AVBL
MERRILL        NOT AVBL
$$

WIZ013-073-290500-
NORTHEAST WISCONSIN

CITY           SKY/WX    TMP DP  RH WIND       PRES   REMARKS
IRON MOUNTAIN  CLOUDY    65  61  87 S5        29.82S
MARINETTE      LGT RAIN  67  60  78 S13       29.85R
$$

WIZ017-030-035>037-045-290500-
CENTRAL WISCONSIN

CITY           SKY/WX    TMP DP  RH WIND       PRES   REMARKS
MEDFORD        NOT AVBL
WAUSAU         CLOUDY    68  62  81 S9        29.81R
MOSINEE        NOT AVBL
MARSHFIELD     CLOUDY    66  61  84 S8        29.82R
WISC RAPIDS    MOCLDY    65  61  87 S8        29.85R
STEVENS POINT  NOT AVBL
WAUPACA        NOT AVBL
SHAWANO        NOT AVBL
CLINTONVILLE   NOT AVBL
WAUTOMA        MOCLDY    64  63  96 S9        29.88R
$$

WIZ038-039-048-051-290500-
FOX VALLEY

CITY           SKY/WX    TMP DP  RH WIND       PRES   REMARKS
NWS GREEN BAY  CLOUDY    65  60  84 S10       29.87R
APPLETON       PTCLDY    64  63  94 S12       29.86R
OSHKOSH        CLOUDY    64  61  90 S9        29.89R
FOND DU LAC    CLOUDY    65  62  90 S12       29.90R
$$

WIZ022-050-052-290500-
EAST CENTRAL WISCONSIN

CITY           SKY/WX    TMP DP  RH WIND       PRES   REMARKS
EPHRAIM        NOT AVBL
STURGEON BAY   NOT AVBL
MANITOWOC      NOT AVBL
SHEBOYGAN      LGT RAIN  63  60  90 S12       29.92S
$$

LMZ563-521-522-541>543-290500-
LAKESHORE

STATION/POSITION TIME  TEMP    WIND        PRES    VSBY  WAVE
                       AIR SEA DIR/SP/G                  HT/PER
                 (UTC) (F)     (DEG/KT/KT) (MB)    (MI)  (FT/S)
SHEBOYGAN LKSHOR 0300   65     240/  5/  5 1013.5R
KEWAUNEE LKSHORE 0300                      1011.5R
ALGOMA MARINA    0317          220/  9/ 11   N/A
NORTHPORT PIER   0300   59     160/  6/ 11 1011.2S
N MID LAKE BUOY  0250   53 46  190/ 12/ 14 1011.4F         3/ 5
SISTER BAY LKSHO 0305   64     170/ 18/ 21   N/A
CHAMBERS ISLAND  0300   68     170/  9/ 15 1010.8R
MENOMINEE LKSHOR 0300   68                 1009.8R
$$




USA.gov is the U.S. government's official web portal to all federal, state and local government web resources and services.